Regional Weather Roundup
Issued by NWS Newport/Morehead, NC

Current Version | Previous Version | Graphics & Text | Print | Product List | Glossary On
Versions: 1 2 3 4 5 6 7 8 9 10 11 12 13 14 15 16 17 18 19 20 21 22 23 24 25 26 27 28 29 30 31 32 33 34 35 36 37 38 39 40 41 42 43 44 45 46 47 48 49 50
000 ASUS42 KMHX 241525 RWRMHX WEATHER ROUNDUP FOR EASTERN NORTH CAROLINA NATIONAL WEATHER SERVICE NEWPORT/MOREHEAD CITY NC 1100 AM EDT SUN MAY 24 2015 NOTE: "FAIR" INDICATES FEW OR NO CLOUDS BELOW 12,000 FEET WITH NO SIGNIFICANT WEATHER AND/OR OBSTRUCTIONS TO VISIBILITY NCZ015>017-031-032-045>047-102-103-241600- NORTH COAST CITY SKY/WX TMP DP RH WIND PRES REMARKS EDENTON SUNNY 75 58 56 SW3 30.42F ELIZABETH CITY SUNNY 73 56 54 VRB3 30.43F KITTY HAWK SUNNY 71 48 43 SE6 30.43S MANTEO SUNNY 72 51 48 E7 30.44S $$ NCZ045>047-081-094-103-104-241600- CENTRAL COAST CITY SKY/WX TMP DP RH WIND PRES REMARKS FRISCO MOSUNNY 76 56 49 SE7 30.43S SWANQUARTER N/A 77 N/A N/A S7 30.39S $$ NCZ095-097-098-100-101-241600- SOUTHERN COAST CITY SKY/WX TMP DP RH WIND PRES REMARKS BEAUFORT SUNNY 77 56 48 SE8 30.41F CEDAR ISLAND N/A 75 N/A N/A E6 30.47S JACKSONVILLE SUNNY 77 55 46 SE6 30.41S PINEY ISLAND SUNNY N/A N/A N/A NE8 30.42S WILMINGTON SUNNY 78 56 46 E8 30.40S $$ NCZ011>013-027>030-043-044-078>080-089-090>093-098-241600- COASTAL PLAIN CITY SKY/WX TMP DP RH WIND PRES REMARKS AHOSKIE SUNNY 73 57 56 S3 30.42F CLINTON SUNNY 76 60 57 CALM 30.42S ELIZABETHTOWN MOSUNNY 77 56 48 SE7 30.41S GOLDSBORO SUNNY 76 59 54 CALM 30.40S GREENVILLE SUNNY 77 57 50 SW3 30.42S HAVELOCK SUNNY 79 55 43 MISG 30.42F KENANSVILLE PTSUNNY 74 55 51 CALM 30.43S KINSTON MOSUNNY 77 55 47 E3 30.42F NEW BERN SUNNY 78 50 37 CALM 30.43S RICHLANDS MOSUNNY 79 54 41 E5 30.42S ROCKY MOUNT SUNNY 77 59 53 SW8 30.42F WASHINGTON MOSUNNY 75 57 52 CALM 30.42F WHITEVILLE MOSUNNY 77 56 47 SE9 30.40R $$ AMZ130-135-150-152-154-156-158-170-250-252-270-ANZ085-086-088-633-658-670-241600- MARINE OBSERVATIONS STATION/POSITION TIME TEMP WIND PRES WAVE SWELL AIR SEA DIR/SP/G HT/PER HT/PER (UTC) (F) (DEG/KT/KT) (MB) (FT/S) (FT/S) CHESAPEAKE LIGHT 1500 62 160/ 9/ 9 1031.2 64 E VA BEACH 1450 64 62 120/ 4/ 6 1030.6 2/ 7 2/ 7 DUCK 1500 66 63 120/ 6/ 6 1029.6 2 E DUCK 1411 63 N/A 2/ 6 OREGON INLET 1500 68 68 70/ 8/ 10 1030.5 13E OREGON INLT 1500 64 N/A 2/ 6 HATTERAS CG 1500 73 72 120/ 5/ 7 1030.0 DIAMOND BUOY 1450 73 77 30/ 4/ 8 1030.4 2/ 6 2/ 6 CAPE LOOKOUT 1500 74 50/ 6/ 7 1029.7 BEAUFORT LAB 1500 75 74 140/ 6/ 8 1029.1 27 SE WRIGHTSVLE 1500 71 77 110/ 8/ 10 N/A 5 SE WRIGHTSVLE 1408 75 76 120/ 10/ 14 1029.5 225 S CAPE HAT 1450 72 74 70/ 17/ 21 1028.2 6/ 6 41 SE CHARLESTON 1450 75 75 80/ 16/ 19 1027.5 5/ 7 2/10 $$

USA.gov is the U.S. government's official web portal to all federal, state and local government web resources and services.